Location: Gu�tanj
(46.5431°N, 14.9692°E)
Time: 18:30:16
(UTC+00:00)

Nadezhda 3 Rocket - Pass Details

Date: 03 March 2021
Orbit: 957 x 999 km, 82.9° (Epoch: 15 April)

Event Time Altitude Azimuth Distance (km) Brightness Sun altitude
Rises 17:27:07 0° 353° (N) 3,725 7.1 -7.3°
Reaches altitude 10° 17:29:41 10° 357° (N) 2,775 6.4 -7.8°
Maximum altitude 17:36:01 63° 78° (ENE) 1,114 4.1 -8.9°
Drops below altitude 10° 17:42:18 10° 159° (SSE) 2,761 6.2 -10.0°
Sets 17:44:51 0° 163° (SSE) 3,704 6.8 -10.4°
